{"data":{"norad_id":63471,"epoch":"2026-09-20T00:24:53.725536Z","epoch_age_seconds":197363,"freshness":"STALE","line1":"1 63471U 25070M   26263.01728849  .00010922  00000+0  40570-3 0  9995","line2":"2 63471  42.9994 242.5693 0001331 261.6740  98.3961 15.27590298 82694","mean_motion":15.27590298,"eccentricity":0.0001331,"inclination_deg":42.9994,"raan_deg":242.5693,"arg_perigee_deg":261.674,"mean_anomaly_deg":98.3961,"bstar":0.0004057,"rev_number":8269,"period_min":94.266113229792,"perigee_km":482.10504053105,"apogee_km":483.93148006134,"semimajor_km":6861.1552602962,"source":"CELESTRAK","updated_at":"2026-09-21T09:00:35.009447Z"}}